TimeCST,TemperatureF,Dew PointF,Humidity,Sea Level PressureIn,VisibilityMPH,Wind Direction,Wind SpeedMPH,Gust SpeedMPH,PrecipitationIn,Events,Conditions,WindDirDegrees,DateUTC
12:56 AM,73.0,69.1,87,29.86,8.0,SSE,15.0,-,N/A,,Overcast,150,2013-01-29 06:56:00
1:00 AM,-9999,-9999,N/A,-9999,-9999.0,North,-9999.0,-,N/A,,Unknown,0,2013-01-29 07:00:00
1:15 AM,73.4,69.8,88,29.86,8.0,SSE,18.4,-,N/A,,Overcast,150,2013-01-29 07:15:00
1:56 AM,73.9,69.1,85,29.83,9.0,SSE,16.1,24.2,N/A,,Overcast,150,2013-01-29 07:56:00
2:56 AM,73.9,68.0,82,29.81,10.0,SSE,17.3,-,N/A,,Overcast,160,2013-01-29 08:56:00
3:56 AM,75.0,68.0,79,29.81,10.0,South,15.0,-,N/A,,Overcast,180,2013-01-29 09:56:00
4:56 AM,75.0,68.0,79,29.79,10.0,North,-9999.0,-,N/A,,Overcast,0,2013-01-29 10:56:00
5:03 AM,73.4,68.0,83,29.79,10.0,North,-9999.0,-,N/A,,Overcast,0,2013-01-29 11:03:00
5:56 AM,75.0,68.0,79,29.79,10.0,South,18.4,-,N/A,,Overcast,170,2013-01-29 11:56:00
6:31 AM,75.2,68.0,78,29.80,10.0,South,17.3,25.3,N/A,,Overcast,170,2013-01-29 12:31:00
6:56 AM,73.9,68.0,82,29.78,10.0,South,23.0,28.8,N/A,,Overcast,170,2013-01-29 12:56:00
7:43 AM,73.4,68.0,83,29.78,8.0,SSE,20.7,29.9,N/A,,Mostly Cloudy,160,2013-01-29 13:43:00
7:56 AM,73.9,68.0,82,29.78,8.0,South,18.4,26.5,N/A,,Mostly Cloudy,170,2013-01-29 13:56:00
8:19 AM,75.2,68.0,78,29.78,8.0,SSE,21.9,29.9,N/A,,Mostly Cloudy,160,2013-01-29 14:19:00
8:56 AM,75.9,68.0,76,29.77,8.0,South,26.5,38.0,N/A,,Overcast,170,2013-01-29 14:56:00
9:56 AM,79.0,68.0,69,29.77,8.0,South,31.1,36.8,N/A,,Overcast,180,2013-01-29 15:56:00
10:31 AM,80.6,66.2,61,29.77,8.0,South,32.2,41.4,N/A,,Overcast,180,2013-01-29 16:31:00
10:56 AM,82.0,66.9,60,29.75,9.0,South,32.2,39.1,N/A,,Overcast,180,2013-01-29 16:56:00
11:56 AM,82.9,66.9,58,29.70,9.0,South,32.2,39.1,N/A,,Overcast,180,2013-01-29 17:56:00
12:56 PM,86.0,66.9,53,29.65,8.0,South,25.3,35.7,N/A,,Mostly Cloudy,180,2013-01-29 18:56:00
1:56 PM,91.2,66.0,43,29.62,9.0,South,23.0,32.2,N/A,,Mostly Cloudy,180,2013-01-29 19:56:00
2:56 PM,92.3,64.0,39,29.59,9.0,South,19.6,27.6,N/A,,Mostly Cloudy,180,2013-01-29 20:56:00
3:56 PM,90.0,64.0,42,29.57,9.0,South,19.6,-,N/A,,Overcast,190,2013-01-29 21:56:00
4:56 PM,89.8,62.1,39,29.57,10.0,South,19.6,-,N/A,,Mostly Cloudy,180,2013-01-29 22:56:00
5:56 PM,84.0,66.9,56,29.57,8.0,South,23.0,27.6,N/A,,Mostly Cloudy,170,2013-01-29 23:56:00
6:56 PM,80.1,66.9,64,29.59,9.0,South,19.6,-,N/A,,Mostly Cloudy,180,2013-01-30 00:56:00
7:56 PM,78.1,66.9,68,29.60,8.0,South,17.3,25.3,N/A,,Mostly Cloudy,170,2013-01-30 01:56:00
8:56 PM,75.9,68.0,76,29.62,8.0,South,17.3,-,N/A,,Mostly Cloudy,170,2013-01-30 02:56:00
9:33 PM,75.2,68.0,78,29.69,8.0,WNW,15.0,24.2,N/A,,Partly Cloudy,300,2013-01-30 03:33:00
9:37 PM,75.2,68.0,78,29.69,8.0,NW,18.4,24.2,N/A,,Mostly Cloudy,310,2013-01-30 03:37:00
9:56 PM,75.0,60.1,60,29.71,9.0,NNW,18.4,26.5,N/A,,Mostly Cloudy,340,2013-01-30 03:56:00
10:01 PM,73.4,46.4,38,29.72,10.0,NNW,13.8,26.5,N/A,,Overcast,340,2013-01-30 04:01:00
10:56 PM,69.1,42.1,38,29.73,10.0,North,10.4,-,N/A,,Mostly Cloudy,350,2013-01-30 04:56:00
11:56 PM,69.1,41.0,36,29.76,10.0,North,10.4,-,N/A,,Overcast,350,2013-01-30 05:56:00